Regional Weather Roundup
Issued by NWS Raleigh/Durham, NC

Home | Current Version | Previous Version | Text Only | Print | Product List | Glossary On
Versions: 1 2 3 4 5 6 7 8 9 10 11 12 13 14 15 16 17 18 19 20 21 22 23 24 25 26 27
000
ASUS42 KRAH 302010
RWRRAH
NORTH CAROLINA WEATHER ROUNDUP
NATIONAL WEATHER SERVICE RALEIGH NC
400 PM EDT MON MAY 30 2016

NOTE: "FAIR" INDICATES FEW OR NO CLOUDS BELOW 12,000 FEET WITH NO
SIGNIFICANT WEATHER AND/OR OBSTRUCTIONS TO VISIBILITY.

NCZ001-053-055-056-065-067-302100-
WESTERN NORTH CAROLINA

CITY           SKY/WX    TMP DP  RH WIND       PRES   REMARKS
ASHEVILLE      SUNNY     84  54  35 NW14G20   30.01F
JEFFERSON      MOSUNNY   77  55  46 NE7       30.06F
MORGANTON      MOSUNNY   86  59  40 N8        30.00F
HICKORY        SUNNY     85  62  46 NE9       29.95F
RUTHERFORDTON  MOSUNNY   86  59  39 N6        29.95F
MOUNT AIRY     SUNNY     82  66  58 CALM      29.99F
BOONE          CLOUDY    74  55  50 CALM      30.07F
$$

NCZ021-022-025-041-071-084-088-302100-
CENTRAL NORTH CAROLINA

CITY           SKY/WX    TMP DP  RH WIND       PRES   REMARKS
CHARLOTTE      PTSUNNY   82  65  56 N14       29.93F
GREENSBORO     MOSUNNY   83  64  52 NE9       29.94F
WINSTON-SALEM  MOSUNNY   82  63  52 NE6       29.96F
RALEIGH-DURHAM TSTM      75  72  88 E16       29.93F FOG
FORT BRAGG     CLOUDY    82  70  66 E8        29.88S
FAYETTEVILLE   CLOUDY    84  69  60 E15       29.88F
BURLINGTON     PTSUNNY   83  67  58 VRB6      29.93F
LAURINBURG     MOSUNNY   85  70  60 SE10      29.88F
$$

NCZ011-015-027-028-043-044-047-080-103-302100-
NORTHEASTERN NORTH CAROLINA

CITY           SKY/WX    TMP DP  RH WIND       PRES   REMARKS
ROCKY MT-WILSO LGT RAIN  78  72  81 E7        29.94F
GREENVILLE     CLOUDY    73  72  94 E6        29.97F
WASHINGTON     RAIN      73  72  96 SE8       29.97F
ELIZABETH CITY LGT RAIN  75  72  90 S6        29.97F
MANTEO         NOT AVBL
CAPE HATTERAS  HVY RAIN  72  70  93 E7        29.97F FOG
$$

NCZ078-087-090-091-093-098-101-302100-
SOUTHEASTERN NORTH CAROLINA

CITY           SKY/WX    TMP DP  RH WIND       PRES   REMARKS
LUMBERTON      MOSUNNY   86  70  58 SE14      29.87F
GOLDSBORO      NOT AVBL
KINSTON        CLOUDY    77  72  83 E10       29.94F
KENANSVILLE    LGT RAIN  76  73  89 CALM      29.92F
NEW BERN       CLOUDY    75  70  84 E8        29.96F
CHERRY POINT   CLOUDY    78  70  76 E8        29.95F
BEAUFORT       PTSUNNY   77  71  82 E6        29.94F
JACKSONVILLE   PTSUNNY   80  70  71 SE12      29.91F
WILMINGTON     CLOUDY    79  72  79 E10       29.90F
$$





USA.gov is the U.S. government's official web portal to all federal, state and local government web resources and services.